{"data":{"norad_id":64159,"epoch":"2026-05-25T02:34:09.930432Z","epoch_age_seconds":59605,"freshness":"FRESH","line1":"1 64159U 25112P   26145.10705938  .00004557  00000+0  31941-3 0  9998","line2":"2 64159  97.4530 196.4315 0003768 118.2189 241.9419 15.05682321 54808","mean_motion":15.05682321,"eccentricity":0.0003768,"inclination_deg":97.453,"raan_deg":196.4315,"arg_perigee_deg":118.2189,"mean_anomaly_deg":241.9419,"bstar":0.00031941,"rev_number":5480,"period_min":95.637703911116,"perigee_km":546.80171388084,"apogee_km":552.02231481805,"semimajor_km":6927.5490143494,"source":"CELESTRAK","updated_at":"2026-05-25T13:38:20.305390Z"}}